TimeEDT,TemperatureF,Dew PointF,Humidity,Sea Level PressureIn,VisibilityMPH,Wind Direction,Wind SpeedMPH,Gust SpeedMPH,PrecipitationIn,Events,Conditions,WindDirDegrees,DateUTC
12:08 AM,73.4,66.2,78,30.16,10.0,ENE,6.9,-,N/A,,Overcast,60,2013-05-18 04:08:00
12:54 AM,71.1,66.0,84,30.14,10.0,SSE,3.5,-,N/A,,Clear,150,2013-05-18 04:54:00
1:54 AM,70.0,66.0,87,30.13,10.0,South,4.6,-,N/A,,Clear,170,2013-05-18 05:54:00
2:54 AM,69.1,64.9,87,30.13,10.0,Calm,Calm,-,N/A,,Scattered Clouds,0,2013-05-18 06:54:00
3:54 AM,69.1,64.0,84,30.13,10.0,SE,4.6,-,N/A,,Overcast,140,2013-05-18 07:54:00
4:54 AM,68.0,64.0,87,30.14,10.0,SSE,4.6,-,N/A,,Partly Cloudy,160,2013-05-18 08:54:00
5:54 AM,68.0,64.0,87,30.14,10.0,South,4.6,-,N/A,,Mostly Cloudy,170,2013-05-18 09:54:00
6:54 AM,68.0,64.0,87,30.16,10.0,South,3.5,-,N/A,,Partly Cloudy,170,2013-05-18 10:54:00
7:54 AM,72.0,66.0,81,30.17,10.0,SSW,4.6,-,N/A,,Partly Cloudy,200,2013-05-18 11:54:00
8:54 AM,77.0,66.0,69,30.18,10.0,SW,6.9,-,N/A,,Clear,230,2013-05-18 12:54:00
9:54 AM,80.1,68.0,67,30.19,10.0,SW,8.1,-,N/A,,Scattered Clouds,230,2013-05-18 13:54:00
10:14 AM,80.6,66.2,61,30.19,10.0,SW,6.9,-,N/A,,Mostly Cloudy,220,2013-05-18 14:14:00
10:22 AM,80.6,66.2,61,30.19,10.0,SW,5.8,-,N/A,,Scattered Clouds,220,2013-05-18 14:22:00
10:54 AM,81.0,68.0,65,30.19,10.0,West,5.8,-,N/A,,Scattered Clouds,280,2013-05-18 14:54:00
11:54 AM,82.9,64.0,53,30.18,10.0,South,6.9,-,N/A,,Partly Cloudy,190,2013-05-18 15:54:00
12:54 PM,82.0,64.9,56,30.17,10.0,SSE,3.5,-,N/A,,Mostly Cloudy,160,2013-05-18 16:54:00
1:54 PM,79.0,66.0,64,30.15,10.0,East,11.5,-,N/A,,Overcast,100,2013-05-18 17:54:00
2:04 PM,71.6,66.2,83,30.16,2.5,ESE,17.3,24.2,0.01,Rain-Thunderstorm,Thunderstorms and Rain,120,2013-05-18 18:04:00
2:30 PM,71.6,62.6,73,30.14,3.0,Calm,Calm,-,0.09,Rain-Thunderstorm,Heavy Thunderstorms and Rain,0,2013-05-18 18:30:00
3:40 PM,73.4,64.4,73,30.13,10.0,Variable,5.8,-,0.00,,Partly Cloudy,0,2013-05-18 19:40:00
3:54 PM,73.9,66.0,76,30.14,10.0,Calm,Calm,-,0.00,,Partly Cloudy,0,2013-05-18 19:54:00
4:54 PM,79.0,68.0,69,30.14,10.0,South,9.2,-,N/A,,Clear,180,2013-05-18 20:54:00
5:54 PM,77.0,66.9,71,30.14,10.0,SSE,5.8,-,N/A,,Clear,160,2013-05-18 21:54:00
6:54 PM,75.0,66.9,76,30.13,10.0,SSE,4.6,-,N/A,,Clear,150,2013-05-18 22:54:00
7:54 PM,73.0,66.9,81,30.16,10.0,SSE,3.5,-,N/A,,Clear,160,2013-05-18 23:54:00
8:54 PM,72.0,66.0,81,30.16,10.0,SSE,3.5,-,N/A,,Clear,160,2013-05-19 00:54:00
9:54 PM,70.0,66.9,90,30.17,10.0,Calm,Calm,-,N/A,,Clear,0,2013-05-19 01:54:00
10:54 PM,68.0,64.9,90,30.17,8.0,SE,3.5,-,N/A,,Clear,140,2013-05-19 02:54:00
11:54 PM,68.0,64.9,90,30.17,9.0,Calm,Calm,-,N/A,,Clear,0,2013-05-19 03:54:00